Weather History for KIGX - May, 2014

Change the Weather History Date:

Thursday, May 1, 2014

  Actual Average Record
Temperature  
Mean Temperature 71 °F -  
Max Temperature 79 °F 74 °F 90 °F (2007)
Min Temperature 64 °F 48 °F 32 °F (1982)
Cooling Degree Days 6    
Growing Degree Days 21 (Base 50)    
Moisture  
Dew Point 61 °F    
Average Humidity 73    
Maximum Humidity 90    
Minimum Humidity 46    
Precipitation  
Precipitation 0.00 in - - ()
Sea Level Pressure  
Sea Level Pressure 29.85 in    
Wind  
Wind Speed 4 mph (SW)    
Max Wind Speed 8 mph    
Max Gust Speed 17 mph    
Visibility 10 miles    
Events      
Averages and records for this station are not official NWS values.
T = Trace of Precipitation, MM = Missing Value Source: NWS Daily Summary

Daily Weather History Graph

Daily Weather History Graph

Search for Another Location

Airport or City:

Trip Planner

Search our weather history database for the weather conditions in past years. The results will help you decide how hot, cold, wet, or windy it might be!

Date:

Astronomy

May. 01, 2014 Rise Set
Actual Time 6:23 AM EDT 8:03 PM EDT
Civil Twilight 5:56 AM EDT 8:30 PM EDT
Nautical Twilight 5:23 AM EDT 9:04 PM EDT
Astronomical Twilight 4:48 AM EDT 9:39 PM EDT
Moon 8:11 AM EDT (5/1) 10:33 PM EDT (5/1)
Length of Visible Light 14h 34m
Length of Day
13h 39m
Waxing Crescent, 6% of the Moon is Illuminated
May 1
Waxing Crescent
May 6
First Quarter
May 14
Full
May 21
Last Quarter
May 28
New

Hourly Weather History & Observations

Time (EDT) Temp. Dew Point Humidity Pressure Visibility Wind Dir Wind Speed Gust Speed Precip Events Conditions
12:16 AM 71.1 °F 66.0 °F 84% 29.91 in 10.0 mi Variable 4.6 mph - N/A   Overcast
12:35 AM 71.1 °F 66.0 °F 84% 29.91 in 10.0 mi Variable 4.6 mph - N/A   Overcast
2:56 AM 68.0 °F 64.9 °F 90% 29.87 in 10.0 mi Calm Calm - N/A   Mostly Cloudy
3:56 AM 69.1 °F 64.0 °F 84% 29.88 in 10.0 mi Variable 3.5 mph - N/A   Overcast
4:56 AM 68.0 °F 64.0 °F 87% 29.88 in 10.0 mi Variable 3.5 mph - N/A   Scattered Clouds
5:56 AM 68.0 °F 63.0 °F 84% 29.88 in 10.0 mi Variable 4.6 mph - N/A   Mostly Cloudy
6:56 AM 68.0 °F 62.1 °F 81% 29.88 in 10.0 mi Variable 3.5 mph - N/A   Overcast
7:56 AM 68.0 °F 62.1 °F 81% 29.88 in 10.0 mi Variable 5.8 mph - N/A   Mostly Cloudy
8:56 AM 68.0 °F 62.1 °F 81% 29.89 in 10.0 mi Variable 3.5 mph - N/A   Scattered Clouds
9:56 AM 69.1 °F 62.1 °F 78% 29.90 in 10.0 mi Variable 5.8 mph - N/A   Mostly Cloudy
10:17 AM 70.0 °F 62.1 °F 76% 29.91 in 10.0 mi Variable 5.8 mph - N/A   Scattered Clouds
10:56 AM 71.1 °F 61.0 °F 70% 29.88 in 10.0 mi WSW 8.1 mph - N/A   Scattered Clouds
12:56 PM 77.0 °F 57.0 °F 50% 29.84 in 10.0 mi Variable 6.9 mph - N/A   Scattered Clouds
1:56 PM 78.1 °F 55.9 °F 46% 29.83 in 10.0 mi SSW 8.1 mph - N/A   Scattered Clouds
3:56 PM 77.0 °F 55.9 °F 48% 29.81 in 10.0 mi Variable 5.8 mph 17.3 mph N/A   Partly Cloudy
4:56 PM 77.0 °F 57.0 °F 50% 29.79 in 10.0 mi Variable 3.5 mph - N/A   Partly Cloudy
5:56 PM 73.9 °F 57.9 °F 57% 29.79 in 10.0 mi Variable 5.8 mph - N/A   Clear
6:56 PM 73.0 °F 60.1 °F 64% 29.77 in 10.0 mi North - - N/A   Clear
7:56 PM 71.1 °F 59.0 °F 66% 29.78 in 10.0 mi Variable 3.5 mph - N/A   Clear
8:56 PM 68.0 °F 59.0 °F 73% 29.79 in 10.0 mi Calm Calm - N/A   Clear
9:56 PM 66.9 °F 60.1 °F 79% 29.80 in 10.0 mi Variable 3.5 mph - N/A   Clear
10:56 PM 64.9 °F 61.0 °F 87% 29.82 in 10.0 mi Variable 3.5 mph - N/A   Clear
11:56 PM 64.0 °F 57.9 °F 80% 29.83 in 10.0 mi Variable 4.6 mph - N/A   Clear